Weather History for KPIH - August, 2013

Change the Weather History Date:

Wednesday, August 7, 2013

  Actual Average Record
Temperature  
Mean Temperature 73 °F 71 °F  
Max Temperature 94 °F 89 °F 103 °F (1990)
Min Temperature 51 °F 52 °F 35 °F (1996)
Degree Days  
Heating Degree Days 0 0  
Month to date heating degree days 0 0  
Since 1 June heating degree days 90 151  
Since 1 July heating degree days 0 20  
Cooling Degree Days 8 6  
Month to date cooling degree days 45 42  
Year to date cooling degree days 439 265  
Since 1 June cooling degree days 430 260  
Growing Degree Days 22 (Base 50)    
Moisture  
Dew Point 29 °F    
Average Humidity 25    
Maximum Humidity 43    
Minimum Humidity 7    
Precipitation  
Precipitation 0.00 in 0.02 in 0.30 in (1993)
Month to date precipitation 0.01 0.13  
Year to date precipitation 3.83 7.59  
Snow  
Snow 0.00 in - - ()
Month to date snowfall 0.0  
Since 1 June snowfall 0.0  
Since 1 July snowfall 0.0  
Snow Depth 0.00 in    
Sea Level Pressure  
Sea Level Pressure 29.85 in    
Wind  
Wind Speed 6 mph (WSW)    
Max Wind Speed 16 mph    
Max Gust Speed 21 mph    
Visibility 10 miles    
Events      
T = Trace of Precipitation, MM = Missing Value Source: NWS Daily Summary

Daily Weather History Graph

Daily Weather History Graph

Search for Another Location

Airport or City:

Trip Planner

Search our weather history database for the weather conditions in past years. The results will help you decide how hot, cold, wet, or windy it might be!

Date:

Astronomy

Aug. 07, 2013 Rise Set
Actual Time 6:28 AM MDT 8:43 PM MDT
Civil Twilight 5:56 AM MDT 9:14 PM MDT
Nautical Twilight 5:17 AM MDT 9:53 PM MDT
Astronomical Twilight 4:34 AM MDT 10:36 PM MDT
Moon 7:23 AM MDT (8/7) 8:48 PM MDT (8/7)
Length of Visible Light 15h 18m
Length of Day
14h 15m
New Moon, 1% of the Moon is Illuminated
Aug 7
New Moon
Aug 14
First Quarter
Aug 20
Full
Aug 28
Last Quarter
Sep 5
New

Hourly Weather History & Observations

Time (MDT) Temp. Dew Point Humidity Pressure Visibility Wind Dir Wind Speed Gust Speed Precip Events Conditions
12:53 AM 77.0 °F 28.9 °F 17% 29.83 in 10.0 mi SSW 15.0 mph 20.7 mph N/A   Clear
1:53 AM 71.1 °F 28.9 °F 21% 29.84 in 10.0 mi SW 11.5 mph - N/A   Clear
2:53 AM 66.9 °F 28.9 °F 24% 29.85 in 10.0 mi SW 10.4 mph - N/A   Clear
3:53 AM 64.9 °F 28.9 °F 26% 29.85 in 10.0 mi SW 8.1 mph - N/A   Clear
4:53 AM 57.9 °F 30.0 °F 35% 29.88 in 10.0 mi SW 6.9 mph - N/A   Clear
5:53 AM 55.9 °F 30.0 °F 37% 29.89 in 10.0 mi SW 6.9 mph - N/A   Clear
6:53 AM 55.0 °F 34.0 °F 45% 29.91 in 10.0 mi South 4.6 mph - N/A   Clear
7:53 AM 62.1 °F 32.0 °F 32% 29.92 in 10.0 mi Calm Calm - N/A   Clear
8:53 AM 69.1 °F 30.0 °F 23% 29.92 in 10.0 mi West 5.8 mph - N/A   Clear
9:53 AM 73.9 °F 36.0 °F 25% 29.93 in 10.0 mi West 6.9 mph - N/A   Clear
10:53 AM 77.0 °F 37.0 °F 24% 29.91 in 10.0 mi WNW 4.6 mph - N/A   Clear
11:53 AM 82.9 °F 37.0 °F 19% 29.89 in 10.0 mi Variable 3.5 mph - N/A   Clear
12:53 PM 87.1 °F 37.0 °F 17% 29.87 in 10.0 mi NNW 8.1 mph - N/A   Clear
1:53 PM 90.0 °F 32.0 °F 13% 29.86 in 10.0 mi North 6.9 mph - N/A   Clear
2:53 PM 90.0 °F 19.0 °F 7% 29.85 in 10.0 mi NW 8.1 mph - N/A   Clear
3:53 PM 91.9 °F 24.1 °F 9% 29.82 in 10.0 mi ENE 6.9 mph - N/A   Partly Cloudy
4:53 PM 93.0 °F 19.0 °F 7% 29.81 in 10.0 mi North 8.1 mph - N/A   Partly Cloudy
5:53 PM 91.9 °F 21.9 °F 8% 29.80 in 10.0 mi Variable 5.8 mph - N/A   Partly Cloudy
6:53 PM 91.0 °F 23.0 °F 8% 29.80 in 10.0 mi Calm Calm - N/A   Partly Cloudy
7:53 PM 88.0 °F 28.0 °F 12% 29.78 in 10.0 mi Calm Calm - N/A   Partly Cloudy
8:53 PM 81.0 °F 28.9 °F 15% 29.78 in 10.0 mi East 4.6 mph - N/A   Clear
9:53 PM 73.9 °F 28.9 °F 19% 29.80 in 10.0 mi ESE 3.5 mph - N/A   Clear
10:53 PM 66.9 °F 30.0 °F 25% 29.82 in 10.0 mi NNW 5.8 mph - N/A   Clear
11:53 PM 66.9 °F 30.0 °F 25% 29.82 in 10.0 mi South 8.1 mph - N/A   Clear